{"data":{"norad_id":65057,"epoch":"2026-09-20T11:32:07.726272Z","epoch_age_seconds":121911,"freshness":"FRESH","line1":"1 65057U 25165B   26263.48064498  .00023811  00000+0  73699-3 0  9995","line2":"2 65057  97.2841 334.7155 0001350  92.4511 267.6887 15.33469338 64127","mean_motion":15.33469338,"eccentricity":0.000135,"inclination_deg":97.2841,"raan_deg":334.7155,"arg_perigee_deg":92.4511,"mean_anomaly_deg":267.6887,"bstar":0.00073699,"rev_number":6412,"period_min":93.904714252591,"perigee_km":464.54687562314,"apogee_km":466.39464971906,"semimajor_km":6843.6077626711,"source":"CELESTRAK","updated_at":"2026-09-21T09:00:35.497887Z"}}